sat.trackr.live / text

‹ back to catalog

STARLINK-36157

NORAD 66933 · 2025-286J

PAYLOAD ACTIVE UNKNOWN

§ Identity

Operator
Country
US
Launch date
2025-12-07
Launch site
AFWTR
Launch vehicle
Mass (kg)
RCS (m²)

Purposes: comms

External: N2YO · Heavens-Above · Gunter

§ Orbital elements

Epoch: 2026-05-25T00:07:57.239904Z

Period
93.85 min
Inclination
53.1623°
Eccentricity
0.0001224
Mean motion
15.34427079 rev/d
Perigee alt
461.8 km
Apogee alt
463.5 km
Semi-major
6,840.8 km
B*
1.1643e-3
RAAN
3.7856°
Arg perigee
99.5023°
Mean anomaly
260.6118°
Rev number
2,710

§ Raw data

STARLINK-361571 66933U 25286J   26145.00552361  .00039201  00000+0  11643-2 0  99912 66933  53.1623   3.7856 0001224  99.5023 260.6118 15.34427079 27101

JSON: /api/v1/satellites/66933 · /tle

For live sub-satellite position, see the globe view (requires WebGL).

§ Visibility from observer

Set your observer location to see the next 7 days of passes ≥ 10°. The values pass through the URL so the page stays shareable.

No JS? Fill the form by hand. The geolocation button needs JavaScript.